TimeMST,TemperatureF,Dew PointF,Humidity,Sea Level PressureIn,VisibilityMPH,Wind Direction,Wind SpeedMPH,Gust SpeedMPH,PrecipitationIn,Events,Conditions,WindDirDegrees,DateUTC
12:15 AM,17.6,5.0,58,30.14,10.0,Calm,Calm,-,N/A,,Clear,0,2013-02-27 07:15:00
12:35 AM,15.8,5.0,62,30.14,10.0,ENE,3.5,-,N/A,,Clear,60,2013-02-27 07:35:00
12:55 AM,17.6,5.0,58,30.15,10.0,Calm,Calm,-,N/A,,Clear,0,2013-02-27 07:55:00
1:15 AM,17.6,5.0,58,30.15,10.0,NE,3.5,-,N/A,,Clear,50,2013-02-27 08:15:00
1:35 AM,17.6,5.0,58,30.15,10.0,NE,4.6,-,N/A,,Clear,50,2013-02-27 08:35:00
1:55 AM,15.8,5.0,62,30.15,10.0,ENE,3.5,-,N/A,,Clear,60,2013-02-27 08:55:00
2:15 AM,15.8,5.0,62,30.15,10.0,ENE,3.5,-,N/A,,Clear,60,2013-02-27 09:15:00
2:35 AM,15.8,5.0,62,30.16,10.0,ENE,3.5,-,N/A,,Clear,60,2013-02-27 09:35:00
2:55 AM,15.8,5.0,62,30.15,10.0,NE,3.5,-,N/A,,Clear,50,2013-02-27 09:55:00
3:15 AM,14.0,5.0,67,30.15,10.0,NE,3.5,-,N/A,,Clear,40,2013-02-27 10:15:00
3:35 AM,14.0,5.0,67,30.15,10.0,Calm,Calm,-,N/A,,Clear,0,2013-02-27 10:35:00
3:55 AM,15.8,5.0,62,30.15,10.0,NE,3.5,-,N/A,,Clear,50,2013-02-27 10:55:00
4:15 AM,14.0,5.0,67,30.16,10.0,NE,3.5,-,N/A,,Clear,40,2013-02-27 11:15:00
4:35 AM,14.0,5.0,67,30.16,10.0,NNE,4.6,-,N/A,,Clear,30,2013-02-27 11:35:00
4:55 AM,14.0,5.0,67,30.17,10.0,NNE,4.6,-,N/A,,Clear,30,2013-02-27 11:55:00
5:15 AM,14.0,5.0,67,30.18,10.0,NE,5.8,-,N/A,,Clear,40,2013-02-27 12:15:00
5:35 AM,14.0,5.0,67,30.18,10.0,NE,3.5,-,N/A,,Clear,50,2013-02-27 12:35:00
5:55 AM,14.0,5.0,67,30.19,10.0,ENE,3.5,-,N/A,,Clear,60,2013-02-27 12:55:00
6:15 AM,14.0,5.0,67,30.20,10.0,NNW,3.5,-,N/A,,Clear,340,2013-02-27 13:15:00
6:35 AM,14.0,5.0,67,30.21,10.0,North,5.8,-,N/A,,Clear,10,2013-02-27 13:35:00
6:55 AM,14.0,3.2,62,30.21,10.0,NNE,3.5,-,N/A,,Clear,30,2013-02-27 13:55:00
7:15 AM,14.0,5.0,67,30.22,10.0,Calm,Calm,-,N/A,,Clear,0,2013-02-27 14:15:00
7:35 AM,15.8,6.8,68,30.22,10.0,NE,3.5,-,N/A,,Clear,50,2013-02-27 14:35:00
7:55 AM,17.6,8.6,68,30.23,10.0,NNE,3.5,-,N/A,,Clear,30,2013-02-27 14:55:00
8:15 AM,19.4,8.6,63,30.23,10.0,NNE,8.1,-,N/A,,Clear,20,2013-02-27 15:15:00
8:35 AM,21.2,8.6,58,30.24,10.0,NNE,9.2,-,N/A,,Clear,30,2013-02-27 15:35:00
8:55 AM,23.0,8.6,54,30.25,10.0,North,6.9,-,N/A,,Clear,10,2013-02-27 15:55:00
9:15 AM,24.8,8.6,50,30.26,10.0,North,8.1,-,N/A,,Clear,360,2013-02-27 16:15:00
9:35 AM,24.8,8.6,50,30.26,10.0,North,9.2,-,N/A,,Clear,10,2013-02-27 16:35:00
9:55 AM,26.6,10.4,51,30.26,10.0,NNE,10.4,-,N/A,,Clear,20,2013-02-27 16:55:00
10:15 AM,28.4,10.4,47,30.26,10.0,North,9.2,-,N/A,,Clear,10,2013-02-27 17:15:00
10:35 AM,28.4,8.6,43,30.26,10.0,NNE,9.2,-,N/A,,Clear,30,2013-02-27 17:35:00
10:55 AM,30.2,6.8,37,30.25,10.0,NNE,8.1,-,N/A,,Clear,30,2013-02-27 17:55:00
11:15 AM,32.0,6.8,35,30.25,10.0,North,9.2,-,N/A,,Clear,10,2013-02-27 18:15:00
11:35 AM,32.0,5.0,32,30.25,10.0,ENE,9.2,16.1,N/A,,Clear,60,2013-02-27 18:35:00
11:55 AM,32.0,6.8,35,30.24,10.0,NE,12.7,16.1,N/A,,Clear,40,2013-02-27 18:55:00
12:15 PM,32.0,5.0,32,30.24,10.0,NNE,8.1,-,N/A,,Clear,20,2013-02-27 19:15:00
12:35 PM,33.8,5.0,30,30.23,10.0,North,8.1,-,N/A,,Clear,10,2013-02-27 19:35:00
12:55 PM,33.8,5.0,30,30.22,10.0,NE,9.2,-,N/A,,Clear,50,2013-02-27 19:55:00
1:15 PM,35.6,5.0,28,30.21,10.0,NNE,5.8,-,N/A,,Clear,30,2013-02-27 20:15:00
1:35 PM,35.6,5.0,28,30.21,10.0,NNE,9.2,16.1,N/A,,Clear,30,2013-02-27 20:35:00
1:55 PM,35.6,5.0,28,30.21,10.0,North,9.2,-,N/A,,Clear,350,2013-02-27 20:55:00
2:15 PM,35.6,6.8,30,30.21,10.0,NNE,6.9,-,N/A,,Clear,20,2013-02-27 21:15:00
2:35 PM,35.6,6.8,30,30.20,10.0,NNE,9.2,-,N/A,,Clear,30,2013-02-27 21:35:00
2:55 PM,35.6,5.0,28,30.20,10.0,NE,9.2,-,N/A,,Clear,40,2013-02-27 21:55:00
3:15 PM,35.6,5.0,28,30.20,10.0,North,6.9,-,N/A,,Clear,360,2013-02-27 22:15:00
3:35 PM,35.6,5.0,28,30.20,10.0,North,10.4,-,N/A,,Clear,350,2013-02-27 22:35:00
3:55 PM,37.4,6.8,28,30.20,10.0,North,6.9,-,N/A,,Clear,10,2013-02-27 22:55:00
4:15 PM,35.6,5.0,28,30.20,10.0,North,8.1,-,N/A,,Clear,350,2013-02-27 23:15:00
4:35 PM,35.6,5.0,28,30.20,10.0,North,9.2,-,N/A,,Clear,10,2013-02-27 23:35:00
4:55 PM,35.6,3.2,26,30.20,10.0,North,8.1,-,N/A,,Clear,360,2013-02-27 23:55:00
5:15 PM,35.6,3.2,26,30.20,10.0,North,9.2,-,N/A,,Clear,350,2013-02-28 00:15:00
5:35 PM,33.8,3.2,28,30.21,10.0,North,6.9,-,N/A,,Clear,360,2013-02-28 00:35:00
5:55 PM,32.0,5.0,32,30.21,10.0,North,8.1,-,N/A,,Clear,10,2013-02-28 00:55:00
6:15 PM,32.0,6.8,35,30.22,10.0,NNE,6.9,-,N/A,,Clear,20,2013-02-28 01:15:00
6:35 PM,28.4,8.6,43,30.22,10.0,NNE,4.6,-,N/A,,Clear,20,2013-02-28 01:35:00
6:55 PM,28.4,8.6,43,30.23,10.0,NNE,4.6,-,N/A,,Clear,20,2013-02-28 01:55:00
7:15 PM,26.6,8.6,47,30.24,10.0,NE,3.5,-,N/A,,Clear,40,2013-02-28 02:15:00
7:35 PM,26.6,10.4,51,30.24,10.0,East,3.5,-,N/A,,Clear,90,2013-02-28 02:35:00
7:55 PM,26.6,8.6,47,30.24,10.0,NE,3.5,-,N/A,,Clear,40,2013-02-28 02:55:00
8:15 PM,24.8,10.4,54,30.25,10.0,NNE,3.5,-,N/A,,Clear,20,2013-02-28 03:15:00
8:35 PM,26.6,6.8,43,30.25,10.0,NE,4.6,-,N/A,,Clear,50,2013-02-28 03:35:00
8:55 PM,24.8,10.4,54,30.26,10.0,ENE,3.5,-,N/A,,Clear,70,2013-02-28 03:55:00
9:15 PM,23.0,8.6,54,30.26,10.0,ENE,4.6,-,N/A,,Clear,70,2013-02-28 04:15:00
9:35 PM,23.0,8.6,54,30.27,10.0,ENE,4.6,-,N/A,,Clear,70,2013-02-28 04:35:00
9:55 PM,23.0,10.4,59,30.27,10.0,ENE,4.6,-,N/A,,Clear,60,2013-02-28 04:55:00
10:15 PM,23.0,10.4,59,30.28,10.0,ENE,4.6,-,N/A,,Clear,70,2013-02-28 05:15:00
10:35 PM,23.0,8.6,54,30.28,10.0,ENE,4.6,-,N/A,,Clear,70,2013-02-28 05:35:00
10:55 PM,21.2,8.6,58,30.28,10.0,East,3.5,-,N/A,,Clear,90,2013-02-28 05:55:00
11:15 PM,23.0,6.8,50,30.28,10.0,East,4.6,-,N/A,,Clear,80,2013-02-28 06:15:00
11:35 PM,23.0,6.8,50,30.28,10.0,ENE,3.5,-,N/A,,Clear,70,2013-02-28 06:35:00
11:55 PM,21.2,6.8,54,30.27,10.0,East,4.6,-,N/A,,Clear,90,2013-02-28 06:55:00